Theta_e
349 348 349 349 349 348 349 348 349 349 348 348 347 347 346 345 346 347 347 350 351 351 351 351 352 352 352 352 352 352 350 349 350 349 348 347 346 347 346 346 346 345
348 348 348 349 349 348 349 349 349 349 349 348 347 347 348 346 346 346 346 348 350 350 350 350 351 352 351 352 352 352 351 350 350 350 349 347 346 347 346 346 346 346
348 348 348 348 348 348 349 349 349 350 349 349 348 348 348 349 348 347 346 347 349 349 349 350 351 351 351 352 352 352 352 351 351 350 350 348 347 348 347 346 346 346
348 348 347 348 348 348 348 350 349 350 350 350 350 349 349 350 349 348 346 346 347 348 348 349 351 351 351 351 351 351 352 352 351 350 350 349 348 347 346 346 346 346
348 348 348 347 348 348 348 349 349 350 350 350 350 350 351 351 351 349 347 346 346 346 347 348 350 351 351 352 351 351 351 352 352 351 350 349 348 348 347 345 346 346
348 347 348 348 348 348 348 349 349 350 350 350 350 351 351 351 352 350 348 347 346 346 346 347 349 351 352 352 352 352 352 352 352 351 349 348 348 349 348 347 347 347
346 346 347 348 348 347 348 348 350 350 350 350 350 350 351 352 352 351 350 348 346 345 346 347 348 351 352 352 352 352 353 352 351 352 350 348 348 348 348 348 348 348
346 346 346 347 348 347 347 348 349 350 350 350 350 350 351 351 351 351 351 349 347 345 346 347 347 349 351 352 352 352 353 352 352 351 351 348 347 348 349 349 349 349
347 346 346 347 348 347 347 348 349 350 350 350 350 350 351 351 351 351 351 350 349 347 347 347 347 347 348 350 350 351 352 353 352 351 351 348 347 348 349 349 349 350
347 347 347 347 347 348 347 348 349 350 350 350 350 350 350 351 351 351 350 350 350 350 349 349 348 347 347 348 347 348 349 351 352 352 351 349 347 346 346 347 348 348
347 347 346 347 348 348 348 348 350 350 350 350 350 350 350 351 351 351 349 349 350 351 350 350 348 348 347 347 347 347 347 349 351 352 351 350 348 346 345 345 346 347
347 348 348 348 348 349 349 349 349 350 351 350 350 351 350 351 351 351 349 348 350 350 350 350 349 348 349 348 348 347 347 347 349 350 350 349 348 346 345 345 347 348
348 348 348 348 348 348 349 349 349 350 351 351 350 351 351 350 350 350 349 349 349 350 350 350 349 349 350 349 349 349 348 348 348 348 348 347 347 346 346 347 349 349
346 347 347 347 348 348 348 349 349 350 350 350 351 351 351 351 351 350 350 348 348 348 349 350 350 350 350 350 350 350 349 350 350 349 347 347 346 347 348 350 350 349
346 346 347 347 347 347 348 348 348 349 349 349 350 349 348 349 350 350 349 348 348 348 349 350 350 350 350 350 350 350 350 350 350 350 348 347 346 347 348 348 348 347
347 346 346 347 346 346 346 347 347 349 349 349 348 347 346 347 348 349 349 348 348 348 348 349 348 349 349 350 350 350 349 350 350 349 349 348 347 347 347 346 346 345
347 348 346 345 346 346 346 347 348 348 348 348 347 347 347 347 348 349 348 348 348 348 348 348 347 348 349 349 348 349 348 348 349 348 348 348 347 347 347 346 346 345
347 347 346 344 345 346 346 346 347 347 347 347 348 349 349 348 347 347 347 347 347 347 347 346 347 347 348 348 348 348 348 348 348 348 348 348 348 348 348 347 347 347
346 347 345 344 345 346 345 346 346 346 347 347 349 349 348 347 346 345 345 344 345 346 346 346 346 346 346 347 348 347 348 348 348 348 347 347 347 347 347 348 348 348
348 348 347 346 346 346 346 346 345 345 346 346 348 348 347 347 345 343 343 343 344 345 347 346 346 346 347 347 347 347 348 347 347 346 346 346 346 346 347 348 348 348
348 348 348 348 347 347 347 346 345 345 344 345 346 347 346 346 345 343 343 345 345 346 347 347 347 348 348 348 348 347 346 346 345 345 345 346 346 346 346 348 348 348
348 348 348 348 347 346 346 345 345 344 344 344 345 346 346 346 345 344 344 345 346 345 346 347 347 348 348 348 348 347 346 344 344 344 344 344 344 344 345 346 347 348
348 347 347 347 347 347 346 346 346 345 345 346 346 346 345 346 346 346 346 346 346 346 346 346 347 348 348 347 347 346 345 345 344 344 343 343 343 343 344 344 345 346
347 347 347 347 347 347 348 347 346 346 346 346 346 346 346 346 346 347 347 346 347 346 347 347 347 347 347 346 346 345 345 344 344 344 344 344 342 343 343 344 345 345
348 348 348 348 348 348 348 348 348 348 348 347 347 347 347 347 346 346 346 346 347 347 346 347 347 347 346 346 345 344 344 344 344 344 344 343 342 341 343 344 344 345
350 350 349 349 349 348 349 349 349 348 347 347 347 347 347 347 347 347 347 347 347 346 346 346 346 346 345 346 345 344 344 343 343 343 343 343 342 342 342 343 344 344
Wind_Speed
36 34 33 34 34 33 33 34 33 33 33 33 34 34 34 33 33 31 30 28 27 26 25 24 23 22 21 20 20 20 19 19 17 15 13 13 12 10 10 9 8 7
33 33 31 31 32 32 33 34 34 34 34 34 34 33 33 33 33 33 32 31 29 28 26 25 24 23 22 21 20 20 19 19 18 17 15 15 14 12 12 11 10 9
31 32 32 32 34 35 34 33 33 34 34 33 33 32 32 33 33 33 34 33 31 30 28 26 26 24 23 21 21 20 20 19 19 18 17 17 15 14 13 12 12 11
30 33 35 35 35 34 33 32 32 33 33 32 32 31 31 31 32 33 34 34 33 32 30 28 27 26 24 23 21 21 21 20 19 18 18 18 17 16 14 13 13 13
32 33 35 38 37 35 32 31 32 32 32 33 33 32 31 30 31 32 33 34 34 33 32 30 29 28 26 24 22 22 21 21 19 18 18 19 19 18 16 14 14 14
36 35 35 38 40 38 33 31 31 32 33 33 33 33 32 31 31 32 33 33 33 33 33 32 30 29 28 26 23 22 22 21 21 19 19 19 20 20 18 16 15 15
35 35 33 34 37 37 34 31 31 32 33 33 33 32 32 31 31 31 31 32 32 32 32 32 31 31 29 27 25 24 22 21 21 21 20 19 19 20 19 17 16 15
30 31 31 32 34 35 35 33 30 31 32 32 32 33 32 32 31 31 30 31 31 31 30 31 31 31 30 29 28 26 24 23 22 22 21 20 19 19 19 18 17 16
26 28 30 32 34 35 36 35 33 32 32 32 33 32 32 31 29 28 27 28 29 29 29 29 30 30 30 30 30 29 27 25 24 23 23 22 20 19 19 19 18 18
22 26 29 31 34 36 37 37 34 33 32 33 32 32 31 30 29 27 25 25 27 28 29 29 29 30 30 29 29 29 29 28 26 25 24 23 22 21 20 21 21 20
21 24 28 32 36 38 37 36 34 33 33 32 32 32 31 31 31 31 29 29 30 30 29 30 29 30 30 29 29 28 29 29 29 28 27 25 24 23 23 23 23 23
16 19 24 31 36 37 36 35 33 32 32 32 32 32 32 32 33 33 31 31 32 31 30 31 30 30 30 29 28 28 27 28 29 29 28 27 26 25 24 23 24 24
11 12 15 24 32 34 35 34 32 32 32 32 33 32 31 32 34 33 32 31 30 30 31 31 30 30 30 30 29 28 27 26 27 27 27 27 26 25 24 24 24 24
10 11 11 16 22 26 30 30 28 30 31 32 32 32 31 33 33 31 32 32 30 31 31 31 30 30 29 29 28 27 26 26 25 25 26 26 26 25 24 25 25 24
7 9 11 14 17 20 24 25 24 24 25 26 27 27 27 29 30 30 31 31 31 31 31 30 30 30 29 28 27 26 26 25 25 25 25 26 26 26 25 26 26 26
6 7 10 14 15 15 17 19 19 18 18 19 20 20 21 23 25 27 27 28 29 30 30 30 29 30 30 29 28 27 26 26 26 26 26 26 26 26 26 27 27 27
6 7 8 10 11 11 12 14 15 16 17 18 19 20 20 21 23 24 25 25 25 26 28 29 31 31 30 28 28 27 27 26 26 27 27 27 26 26 26 26 26 26
6 7 7 8 11 13 15 16 16 17 18 19 21 22 20 20 21 23 25 24 23 22 23 24 28 30 30 29 28 27 27 27 26 27 28 27 27 26 26 25 25 24
7 8 9 11 13 14 15 16 17 18 19 21 22 22 21 20 20 21 23 24 24 24 25 25 26 28 29 29 29 29 28 27 26 26 26 25 25 25 25 25 25 24
10 11 12 13 14 14 14 15 15 16 18 20 21 21 21 21 20 19 22 25 26 27 27 28 28 26 26 27 28 27 26 26 26 26 25 24 23 24 25 26 25 25
12 13 14 14 14 14 14 15 15 14 15 16 18 20 20 19 19 20 22 24 25 25 25 27 28 26 26 26 26 25 25 23 23 24 24 23 22 23 25 26 25 25
12 12 13 13 13 14 14 14 14 14 14 14 15 16 17 18 19 20 21 22 23 23 24 26 28 27 26 26 25 25 25 22 22 23 23 22 23 24 24 25 27 27
12 12 12 12 13 13 13 13 13 13 13 13 14 16 17 18 19 19 19 20 21 22 24 26 26 26 25 24 24 23 23 24 25 24 21 21 22 23 23 24 26 27
12 13 13 13 14 13 13 12 11 11 12 12 13 15 15 15 15 15 17 19 20 21 23 23 23 22 21 21 21 21 23 23 24 24 25 25 25 23 22 22 23 25
11 12 12 13 13 13 12 11 11 11 12 12 13 13 13 13 12 12 15 18 19 20 20 20 20 20 19 19 18 20 23 23 21 22 25 25 24 23 22 20 20 22
10 11 12 12 12 12 11 11 11 12 12 13 13 13 14 14 13 13 14 16 17 18 18 19 19 19 18 17 17 17 20 21 21 22 22 23 24 25 24 22 20 21
Wind_Direction
215 211 212 213 210 209 206 204 203 203 203 205 205 208 210 211 212 212 214 216 218 219 220 222 225 228 231 234 237 242 244 244 242 241 241 244 246 246 246 242 235 232
217 213 214 214 211 210 210 208 206 204 205 207 207 208 210 212 212 211 212 215 217 220 222 223 224 226 229 232 235 240 242 242 241 242 243 245 247 248 248 246 244 244
219 217 216 216 213 211 211 210 208 207 207 208 209 210 211 213 213 212 212 213 216 219 221 224 224 224 227 229 232 237 240 241 241 242 246 246 245 247 250 250 250 252
222 221 218 218 217 213 211 210 209 208 207 208 210 210 211 213 214 213 213 213 216 218 220 223 224 224 225 227 231 236 239 242 243 245 249 248 246 248 252 253 254 256
225 223 220 219 218 216 212 210 209 208 207 208 209 210 210 211 213 213 214 214 216 218 220 223 224 224 225 227 231 235 238 242 243 245 250 250 248 250 254 257 257 258
228 227 224 219 217 215 212 210 210 209 208 208 209 210 210 210 212 213 214 216 217 218 219 222 224 224 224 227 230 234 237 240 242 244 249 252 252 253 254 257 257 257
229 230 227 221 216 214 211 211 212 211 210 209 209 209 210 210 212 214 215 217 218 219 220 221 223 224 224 226 229 232 235 238 240 242 247 252 255 254 252 253 255 255
229 229 227 223 217 212 210 211 214 213 210 209 208 209 210 211 213 215 216 217 218 220 221 221 223 225 225 227 229 232 234 236 237 240 245 251 255 254 250 250 253 256
230 225 223 222 215 209 207 209 213 214 210 208 208 208 210 211 212 213 215 217 219 220 221 222 224 226 227 228 230 233 235 236 237 239 242 248 252 253 251 251 254 257
232 224 221 220 213 206 204 206 210 211 209 208 207 208 208 207 208 209 211 216 220 221 222 223 225 227 228 229 232 234 236 237 239 240 242 246 250 252 253 254 256 258
238 228 224 221 213 204 200 202 207 208 207 206 206 206 206 206 209 211 212 213 217 220 223 224 226 227 228 230 232 234 236 238 240 242 244 246 249 253 255 256 257 258
238 233 225 214 204 198 195 197 201 204 205 204 204 205 203 205 211 213 213 212 213 215 220 224 225 227 228 231 233 235 237 238 240 243 245 247 250 253 255 254 254 256
220 220 208 191 185 187 191 194 197 202 202 202 204 203 202 205 210 212 215 215 213 212 216 220 223 225 228 231 234 236 238 238 239 242 245 246 249 251 252 251 252 254
214 209 193 173 171 179 186 189 194 200 202 202 203 202 202 207 212 214 218 219 218 216 217 219 222 226 229 231 233 235 237 238 241 243 245 245 246 248 248 250 252 256
227 214 201 184 176 180 184 187 195 202 203 203 203 202 204 209 214 216 219 221 222 221 221 222 224 227 230 231 233 234 235 238 241 244 245 244 244 245 247 250 254 258
232 223 212 198 190 187 185 189 199 206 206 206 206 207 207 209 214 219 220 224 226 225 225 225 226 228 230 232 234 236 237 238 240 242 243 244 244 245 247 251 255 259
226 218 211 198 195 195 189 192 203 208 208 209 210 211 209 207 215 223 227 230 230 227 226 227 227 227 228 230 233 236 239 239 239 240 242 243 245 246 249 252 256 259
229 210 202 196 200 206 204 204 210 214 215 215 214 214 212 207 209 217 223 226 227 227 227 228 230 230 228 230 234 236 238 239 241 241 241 242 243 246 250 254 257 260
232 212 216 217 212 214 214 211 213 219 222 222 220 219 219 217 213 213 215 217 220 226 229 230 233 233 232 233 235 237 238 239 241 241 240 241 243 247 251 254 256 259
227 216 224 227 221 221 223 218 217 220 223 226 226 225 226 224 220 218 219 220 221 225 229 232 233 233 234 234 234 236 238 238 237 238 240 241 244 249 254 255 255 257
223 219 223 225 222 225 229 228 225 221 219 223 228 232 234 230 224 222 224 226 228 229 233 236 236 235 235 236 235 234 234 233 232 232 236 240 243 247 254 257 258 258
219 218 220 221 220 223 230 234 232 225 220 220 223 228 230 228 226 224 223 226 231 233 234 236 237 235 236 237 236 233 232 232 231 231 233 240 246 249 254 258 260 260
213 212 214 218 218 218 224 232 234 230 225 220 218 220 221 221 223 222 220 221 224 227 228 231 234 235 235 236 236 233 233 236 239 239 239 242 245 250 258 262 261 260
209 210 211 215 217 218 221 227 231 232 230 224 222 224 225 226 225 223 223 222 222 224 228 232 236 238 238 239 240 239 237 237 239 241 242 241 245 255 265 266 262 261
207 210 212 216 221 223 225 229 233 234 234 232 229 230 234 236 233 230 231 231 230 231 235 238 242 245 245 245 246 244 239 235 234 236 237 238 247 261 269 269 264 261
206 212 216 219 224 227 229 232 235 236 235 234 234 236 240 242 239 237 239 242 241 240 240 241 245 249 251 251 248 246 241 236 234 232 230 232 242 251 259 265 267 264